Norwegian Sun — C6RN3 — position and weather

sailwx.info

Track history (hours):
 
Tides and Currents Weather Stations Pressure Air Temp Water Temp Dewpoint Dewpoint Depression Visibility Wind Speed Wind Dir Waves Ship Positions

Norwegian Sun

Operator: Norwegian Cruise Line

Last reported at 2018-May-18 01:34 UTC. Time now 2018-May-20 21:17 UTC.
Position N 26°27' W 079°29'.

Type: Passenger vessel. MMSI: 311109000.

Date/timePositionNaut miles runAvg speedWind from/ knotsBaromVisibWave heightAir tempDewpointWater temp
2018-May-18 01:34N 26°27' W 079°29'216.3
2018-May-18 01:26N 26°25' W 079°29'716.3
2018-May-18 01:00N 26°18' W 079°30'816.5
2018-May-18 00:30N 26°10' W 079°32'816.8
2018-May-18 00:00N 26°02' W 079°33'917.0
2018-May-17 23:30N 25°53' W 079°35'917.2
2018-May-17 23:00N 25°45' W 079°37'917.1
2018-May-17 22:30N 25°36' W 079°37'612.9
2018-May-17 22:00N 25°30' W 079°38'816.7
2018-May-17 21:30N 25°22' W 079°39'816.5
2018-May-17 21:00N 25°13' W 079°39'  
2018-May-15 07:26N 25°13' W 079°40'819.3
2018-May-15 07:00N 25°21' W 079°39'1019.3
2018-May-15 06:30N 25°31' W 079°39'1019.3
2018-May-15 06:00N 25°40' W 079°37'1019.4
2018-May-15 05:30N 25°50' W 079°35'1019.4
2018-May-15 05:00N 25°59' W 079°33'1019.4
2018-May-15 04:30N 26°09' W 079°31'1019.1
2018-May-15 04:00N 26°18' W 079°29'  
2018-May-12 00:27N 27°26' W 079°46'1417.1
2018-May-11 23:37N 27°38' W 079°55'218.0
2018-May-11 23:30N 27°39' W 079°56'1019.6
2018-May-11 22:58N 27°48' W 080°03'48 5.1
2018-May-11 13:30N 28°25' W 080°38'0 0.0
2018-May-11 12:18N 28°25' W 080°38'0 0.0
2018-May-11 11:00N 28°25' W 080°38'0 0.0
2018-May-11 10:30N 28°25' W 080°38'13714.7
2018-May-11 01:11N 26°22' W 079°29'420.0
2018-May-11 01:00N 26°18' W 079°30'1020.0
2018-May-11 00:30N 26°09' W 079°32'1020.2
2018-May-11 00:00N 25°59' W 079°34'1020.3
2018-May-10 23:30N 25°49' W 079°36'1020.3
2018-May-10 23:00N 25°39' W 079°37'1020.0
2018-May-10 22:30N 25°29' W 079°38'  
2018-May-08 07:16N 25°22' W 079°39'519.1
2018-May-08 07:00N 25°27' W 079°39'918.8
2018-May-08 06:30N 25°36' W 079°38'918.8
2018-May-08 06:00N 25°46' W 079°36'918.9
2018-May-08 05:30N 25°55' W 079°34'918.7
2018-May-08 05:00N 26°04' W 079°32'1018.9
2018-May-08 04:30N 26°13' W 079°30'  
Track history (hours):
 
Tides and Currents Weather Stations Pressure Air Temp Water Temp Dewpoint Dewpoint Depression Visibility Wind Speed Wind Dir Waves Ship Positions

Norwegian Sun

Operator: Norwegian Cruise Line

Last reported at 2018-May-18 01:34 UTC. Time now 2018-May-20 21:17 UTC.
Position N 26°27' W 079°29'.

Type: Passenger vessel. MMSI: 311109000.

Date/timePositionNaut miles runAvg speedWind from/ knotsBaromVisibWave heightAir tempDewpointWater temp
2018-May-18 01:34N 26°27' W 079°29'216.3
2018-May-18 01:26N 26°25' W 079°29'716.3
2018-May-18 01:00N 26°18' W 079°30'816.5
2018-May-18 00:30N 26°10' W 079°32'816.8
2018-May-18 00:00N 26°02' W 079°33'917.0
2018-May-17 23:30N 25°53' W 079°35'917.2
2018-May-17 23:00N 25°45' W 079°37'917.1
2018-May-17 22:30N 25°36' W 079°37'612.9
2018-May-17 22:00N 25°30' W 079°38'816.7
2018-May-17 21:30N 25°22' W 079°39'816.5
2018-May-17 21:00N 25°13' W 079°39'  
2018-May-15 07:26N 25°13' W 079°40'819.3
2018-May-15 07:00N 25°21' W 079°39'1019.3
2018-May-15 06:30N 25°31' W 079°39'1019.3
2018-May-15 06:00N 25°40' W 079°37'1019.4
2018-May-15 05:30N 25°50' W 079°35'1019.4
2018-May-15 05:00N 25°59' W 079°33'1019.4
2018-May-15 04:30N 26°09' W 079°31'1019.1
2018-May-15 04:00N 26°18' W 079°29'  
2018-May-12 00:27N 27°26' W 079°46'1417.1
2018-May-11 23:37N 27°38' W 079°55'218.0
2018-May-11 23:30N 27°39' W 079°56'1019.6
2018-May-11 22:58N 27°48' W 080°03'48 5.1
2018-May-11 13:30N 28°25' W 080°38'0 0.0
2018-May-11 12:18N 28°25' W 080°38'0 0.0
2018-May-11 11:00N 28°25' W 080°38'0 0.0
2018-May-11 10:30N 28°25' W 080°38'13714.7
2018-May-11 01:11N 26°22' W 079°29'420.0
2018-May-11 01:00N 26°18' W 079°30'1020.0
2018-May-11 00:30N 26°09' W 079°32'1020.2
2018-May-11 00:00N 25°59' W 079°34'1020.3
2018-May-10 23:30N 25°49' W 079°36'1020.3
2018-May-10 23:00N 25°39' W 079°37'1020.0
2018-May-10 22:30N 25°29' W 079°38'  
2018-May-08 07:16N 25°22' W 079°39'519.1
2018-May-08 07:00N 25°27' W 079°39'918.8
2018-May-08 06:30N 25°36' W 079°38'918.8
2018-May-08 06:00N 25°46' W 079°36'918.9
2018-May-08 05:30N 25°55' W 079°34'918.7
2018-May-08 05:00N 26°04' W 079°32'1018.9
2018-May-08 04:30N 26°13' W 079°30'  

Dump ship's entire track history